�N����,����,�~����,�C��,���x,�C��,����,���ϕ���,�ő�u�ԕ���,�ő厞����,���˗�,�I�_���x,�n�����x,�ő啗���N��,DTYPE
"22/07/24","00:10",0.0,21.3,87.7,1001.5,332.1,0.6,1.2,349.9,0.00,19.2,24.7,"00:05:44",1
"22/07/24","00:20",0.0,21.3,88.0,1001.5,306.4,0.8,1.7,318.1,0.00,19.3,24.5,"00:18:00",1
"22/07/24","00:30",0.0,21.2,88.3,1001.5,330.5,1.3,2.7,352.4,0.00,19.2,24.5,"00:29:36",1
"22/07/24","00:40",0.0,21.2,88.4,1001.0,351.7,1.6,2.5,338.2,0.00,19.2,24.6,"00:34:24",1
"22/07/24","00:50",0.0,21.3,88.4,1001.0,344.0,2.2,3.6,337.6,0.00,19.3,24.5,"00:47:36",1
"22/07/24","01:00",0.0,21.3,88.5,1001.0,333.7,2.7,4.3,335.3,0.00,19.4,24.5,"00:57:28",1
"22/07/24","01:10",0.0,21.3,88.3,1001.5,332.4,2.3,3.7,341.5,0.00,19.3,24.4,"01:03:28",1
"22/07/24","01:20",0.0,21.4,88.3,1001.0,335.8,1.8,3.2,344.4,0.00,19.4,24.6,"01:12:32",1
"22/07/24","01:30",0.0,21.2,88.3,1001.2,331.9,1.8,2.7,329.7,0.00,19.2,24.4,"01:25:04",1
"22/07/24","01:40",0.0,21.1,88.6,1001.0,327.1,2.0,3.2,323.3,0.00,19.2,24.3,"01:35:44",1
"22/07/24","01:50",0.0,21.0,88.9,1000.8,312.8,2.0,2.7,338.2,0.00,19.1,24.3,"01:41:20",1
"22/07/24","02:00",0.0,21.0,89.1,1000.8,320.9,2.1,2.9,326.5,0.00,19.2,24.4,"01:56:00",1
"22/07/24","02:10",0.0,20.9,89.1,1001.0,333.4,2.1,2.8,333.3,0.00,19.1,24.3,"02:00:40",1
"22/07/24","02:20",0.0,20.8,89.3,1001.2,329.8,2.1,3.2,338.4,0.00,19.0,24.4,"02:10:24",1
"22/07/24","02:30",0.0,20.7,89.6,1001.2,325.7,1.6,2.8,343.0,0.00,19.0,24.4,"02:28:40",1
"22/07/24","02:40",0.0,20.6,89.8,1001.5,320.5,1.5,2.2,333.3,0.00,18.9,24.1,"02:39:28",1
"22/07/24","02:50",0.0,20.5,90.1,1001.5,329.2,1.8,3.1,341.3,0.00,18.9,24.2,"02:45:12",1
"22/07/24","03:00",0.0,20.4,90.4,1001.7,328.4,1.7,2.5,336.0,0.00,18.8,24.2,"02:57:28",1
"22/07/24","03:10",0.0,20.2,90.6,1001.7,325.1,1.5,2.4,337.6,0.00,18.7,24.1,"03:00:08",1
"22/07/24","03:20",0.0,20.1,90.9,1001.5,322.8,1.6,2.1,314.8,0.00,18.6,24.2,"03:15:20",1
"22/07/24","03:30",0.0,20.1,91.1,1001.5,333.7,1.3,2.2,334.8,0.00,18.6,24.1,"03:20:32",1
"22/07/24","03:40",0.0,20.1,91.3,1001.0,331.3,2.0,3.1,323.9,0.00,18.7,24.2,"03:31:44",1
"22/07/24","03:50",0.0,20.1,91.4,1001.5,298.8,1.6,3.5,301.4,0.00,18.7,24.0,"03:40:56",1
"22/07/24","04:00",0.0,20.0,91.6,1001.2,311.9,1.6,3.2,309.9,0.00,18.6,24.0,"03:50:40",1
"22/07/24","04:10",0.0,20.0,91.7,1001.5,308.0,1.7,2.9,319.6,0.00,18.6,24.2,"04:04:48",1
"22/07/24","04:20",0.0,19.9,91.8,1001.9,307.8,1.5,2.5,320.4,0.00,18.6,23.9,"04:14:32",1
"22/07/24","04:30",0.0,19.9,91.9,1001.2,329.6,1.7,3.4,331.1,0.00,18.6,24.4,"04:22:08",1
"22/07/24","04:40",0.0,19.9,91.9,1001.7,332.4,2.0,3.1,342.2,0.00,18.6,23.9,"04:30:08",1
"22/07/24","04:50",0.0,19.8,92.0,1002.2,323.5,1.7,2.8,328.0,0.00,18.5,23.9,"04:46:40",1
"22/07/24","05:00",0.0,19.8,92.1,1002.2,297.3,1.2,1.9,305.9,0.00,18.5,23.8,"04:53:04",1
"22/07/24","05:10",0.0,19.8,92.2,1001.9,345.8,1.1,1.6,341.5,0.00,18.5,24.0,"05:05:12",1
"22/07/24","05:20",0.0,19.7,92.3,1001.9,324.8,1.6,2.5,324.5,0.00,18.5,24.0,"05:15:12",1
"22/07/24","05:30",0.0,19.6,92.4,1002.2,297.2,1.1,2.1,319.6,0.00,18.4,23.8,"05:20:16",1
"22/07/24","05:40",0.0,19.6,92.6,1002.4,327.1,1.8,2.7,338.2,0.00,18.4,23.9,"05:36:56",1
"22/07/24","05:50",0.0,19.7,92.6,1002.2,308.7,1.3,2.5,348.5,0.00,18.5,24.1,"05:40:32",1
"22/07/24","06:00",0.0,19.8,92.7,1002.2,318.8,2.0,3.4,321.0,0.00,18.6,23.8,"05:52:40",1
"22/07/24","06:10",0.0,19.8,92.7,1002.4,314.1,1.8,2.8,342.3,0.00,18.6,23.7,"06:05:44",1
"22/07/24","06:20",0.0,20.0,92.6,1002.4,314.4,2.3,3.7,316.0,0.00,18.8,23.8,"06:10:48",1
"22/07/24","06:30",0.0,20.3,92.5,1002.2,315.9,2.1,3.1,334.7,0.00,19.1,23.8,"06:25:36",1
"22/07/24","06:40",0.0,20.7,92.4,1002.6,319.0,1.6,2.6,312.9,0.03,19.5,23.7,"06:32:48",1
"22/07/24","06:50",0.0,21.5,92.3,1002.4,321.4,1.0,2.5,308.1,0.05,20.2,23.7,"06:41:20",1
"22/07/24","07:00",0.0,22.2,91.3,1002.4,345.9,0.8,1.2,343.4,0.07,20.8,23.7,"06:54:48",1
"22/07/24","07:10",0.0,22.9,89.7,1002.4,344.6,0.8,2.2,341.3,0.09,21.2,23.6,"07:09:12",1
"22/07/24","07:20",0.0,23.0,88.2,1002.6,340.5,1.2,1.8,346.6,0.09,21.0,23.5,"07:10:24",1
"22/07/24","07:30",0.0,23.8,86.7,1002.6,345.0,0.5,1.4,345.1,0.13,21.5,23.7,"07:20:08",1
"22/07/24","07:40",0.0,25.1,83.6,1002.2,17.3,0.3,0.9,356.2,0.15,22.2,23.8,"07:30:24",1
"22/07/24","07:50",0.0,25.9,79.5,1001.9,101.9,0.3,0.9,66.2,0.17,22.1,23.7,"07:43:36",1
"22/07/24","08:00",0.0,26.6,75.7,1001.7,17.8,0.5,1.2,354.7,0.20,22.0,23.7,"07:50:02",1
"22/07/24","08:10",0.0,26.7,71.4,1001.2,130.5,0.7,1.3,114.0,0.23,21.1,23.7,"08:04:56",1
"22/07/24","08:20",0.0,27.5,71.3,1000.8,154.2,0.6,1.3,102.9,0.26,21.9,23.8,"08:15:04",1
"22/07/24","08:30",0.0,27.5,68.7,1001.7,141.0,0.6,1.2,122.2,0.23,21.3,23.8,"08:21:52",1
"22/07/24","08:40",0.0,27.9,68.7,1001.5,145.8,0.7,1.8,146.5,0.30,21.7,23.7,"08:36:24",1
"22/07/24","08:50",0.0,27.7,68.7,1001.7,174.4,1.0,2.5,130.6,0.32,21.5,23.9,"08:42:00",1
"22/07/24","09:00",0.0,28.2,66.9,1001.7,138.1,0.8,2.0,137.7,0.34,21.5,23.6,"08:58:00",1
"22/07/24","09:10",0.0,28.3,65.6,1002.2,161.1,1.0,2.6,121.9,0.32,21.3,23.7,"09:09:04",1
"22/07/24","09:20",0.0,28.2,68.1,1001.9,152.2,1.0,2.0,135.5,0.33,21.8,23.8,"09:12:40",1
"22/07/24","09:30",0.0,28.5,67.0,1002.4,178.4,1.5,3.2,192.1,0.40,21.8,23.7,"09:24:32",1
"22/07/24","09:40",0.0,28.2,65.4,1001.7,193.3,1.7,3.6,232.8,0.41,21.1,23.8,"09:31:52",1
"22/07/24","09:50",0.0,28.7,64.2,1001.7,191.6,1.1,4.1,201.0,0.44,21.3,24.0,"09:44:16",1
"22/07/24","10:00",0.0,28.6,63.4,1002.2,191.8,1.8,2.9,236.4,0.45,21.0,23.8,"09:50:08",1
"22/07/24","10:10",0.0,29.6,63.1,1002.2,144.0,1.1,2.6,206.9,0.48,21.9,23.9,"10:08:00",1
"22/07/24","10:20",0.0,30.0,60.8,1002.4,143.2,1.3,2.2,152.1,0.48,21.6,23.9,"10:12:08",1
"22/07/24","10:30",0.0,30.6,58.6,1002.4,75.9,0.8,2.4,132.5,0.51,21.6,24.0,"10:22:08",1
"22/07/24","10:40",0.0,30.7,57.6,1002.6,149.0,1.2,2.1,199.2,0.52,21.4,23.9,"10:39:44",1
"22/07/24","10:50",0.0,30.2,57.3,1002.9,275.7,1.2,2.9,228.9,0.52,20.9,24.0,"10:43:28",1
"22/07/24","11:00",0.0,30.7,57.4,1003.1,243.7,0.6,1.6,327.9,0.53,21.4,24.1,"10:50:24",1
"22/07/24","11:10",0.0,30.8,60.7,1002.9,181.8,1.2,2.5,216.0,0.49,22.4,23.9,"11:08:08",1
"22/07/24","11:20",0.0,31.1,57.3,1002.6,221.5,0.8,2.1,128.2,0.55,21.7,24.0,"11:10:08",1
"22/07/24","11:30",0.0,31.5,57.2,1002.6,114.2,1.0,2.4,207.9,0.57,22.0,24.3,"11:25:12",1
"22/07/24","11:40",0.0,31.9,56.0,1003.1,126.9,1.1,3.5,132.2,0.55,22.1,24.3,"11:39:12",1
"22/07/24","11:50",0.0,32.2,54.8,1002.9,168.6,1.0,1.9,140.3,0.62,22.0,24.4,"11:43:20",1
"22/07/24","12:00",0.0,32.5,53.9,1003.1,146.1,0.7,1.8,189.3,0.52,22.0,24.3,"11:58:32",1
"22/07/24","12:10",0.0,32.5,56.7,1002.9,153.4,1.6,3.3,130.7,0.62,22.8,24.4,"12:05:36",1
"22/07/24","12:20",0.0,32.2,53.4,1002.9,151.3,1.5,3.6,194.7,0.60,21.6,24.3,"12:17:52",1
"22/07/24","12:30",0.0,33.3,55.4,1002.6,140.7,1.2,3.1,150.2,0.59,23.2,24.6,"12:20:02",1
"22/07/24","12:40",0.0,32.7,55.1,1002.4,162.9,2.0,3.4,134.6,0.59,22.5,24.6,"12:30:16",1
"22/07/24","12:50",0.0,33.5,53.6,1002.4,156.9,1.1,2.8,193.6,0.59,22.8,24.6,"12:45:28",1
"22/07/24","13:00",0.0,33.1,51.4,1002.4,160.5,1.5,2.9,175.7,0.60,21.8,24.7,"12:56:24",1
"22/07/24","13:10",0.0,33.3,53.0,1002.4,153.5,1.3,3.1,153.3,0.57,22.5,24.6,"13:04:40",1
"22/07/24","13:20",0.0,33.3,50.5,1002.4,175.7,1.5,4.1,185.9,0.60,21.7,24.7,"13:15:04",1
"22/07/24","13:30",0.0,33.0,51.2,1002.4,180.8,2.3,4.2,204.7,0.60,21.6,24.8,"13:26:48",1
"22/07/24","13:40",0.0,32.9,52.5,1002.2,181.8,2.2,4.7,227.2,0.51,21.9,24.7,"13:30:56",1
"22/07/24","13:50",0.0,33.5,52.7,1002.2,164.3,2.1,4.7,174.5,0.59,22.6,24.8,"13:43:44",1
"22/07/24","14:00",0.0,33.5,51.3,1002.2,152.3,1.7,3.4,129.3,0.52,22.1,24.8,"13:56:40",1
"22/07/24","14:10",0.0,34.1,51.9,1001.9,166.2,1.5,4.2,202.5,0.56,22.9,24.9,"14:00:48",1
"22/07/24","14:20",0.0,34.1,48.4,1002.2,168.3,1.5,2.9,151.1,0.53,21.7,25.0,"14:11:28",1
"22/07/24","14:30",0.0,33.4,48.5,1001.9,212.5,2.2,3.6,242.3,0.51,21.1,25.1,"14:24:24",1
"22/07/24","14:40",0.0,33.0,49.6,1001.7,176.7,2.0,4.8,218.7,0.37,21.1,25.1,"14:35:28",1
"22/07/24","14:50",0.0,33.0,49.7,1001.7,166.5,1.8,3.9,213.1,0.35,21.1,25.2,"14:40:16",1
"22/07/24","15:00",0.0,33.6,48.6,1001.7,172.2,2.2,4.5,214.2,0.45,21.3,25.2,"14:58:16",1
"22/07/24","15:10",0.0,33.6,46.0,1001.5,186.0,2.2,4.5,206.6,0.47,20.4,25.1,"15:05:44",1
"22/07/24","15:20",0.0,33.5,47.0,1001.5,197.9,2.7,5.5,200.8,0.45,20.7,25.1,"15:15:52",1
"22/07/24","15:30",0.0,33.2,47.2,1001.5,187.8,2.7,5.0,202.8,0.43,20.5,25.2,"15:22:16",1
"22/07/24","15:40",0.0,33.3,46.6,1001.5,182.7,2.2,4.2,204.7,0.41,20.4,25.2,"15:33:44",1
"22/07/24","15:50",0.0,33.8,46.3,1001.2,201.3,1.5,3.3,207.2,0.39,20.7,25.4,"15:49:52",1
"22/07/24","16:00",0.0,33.6,45.7,1001.2,197.4,1.7,4.5,156.9,0.37,20.3,25.5,"15:50:40",1
"22/07/24","16:10",0.0,33.9,46.3,1001.2,250.2,1.2,2.8,319.8,0.35,20.8,25.3,"16:01:12",1
"22/07/24","16:20",0.0,33.5,47.4,1001.2,198.1,1.8,4.0,198.6,0.32,20.8,25.5,"16:10:02",1
"22/07/24","16:30",0.0,33.3,48.0,1001.2,189.0,2.0,4.7,193.8,0.30,20.8,25.4,"16:20:08",1
"22/07/24","16:40",0.0,33.7,47.5,1001.5,228.7,1.8,3.7,223.4,0.28,21.0,25.3,"16:34:16",1
"22/07/24","16:50",0.0,33.9,44.9,1001.5,222.1,1.3,4.7,221.6,0.26,20.3,25.5,"16:48:48",1
"22/07/24","17:00",0.0,33.2,44.8,1001.0,247.6,2.0,4.5,197.1,0.23,19.6,25.6,"16:58:48",1
"22/07/24","17:10",0.0,33.3,43.8,1001.2,221.7,2.0,4.4,231.4,0.21,19.4,25.5,"17:08:40",1
"22/07/24","17:20",0.0,33.0,46.9,1001.0,198.5,1.7,4.2,204.0,0.19,20.2,25.5,"17:15:36",1
"22/07/24","17:30",0.0,32.8,47.7,1001.2,192.2,2.2,3.7,213.2,0.16,20.3,25.6,"17:27:20",1
"22/07/24","17:40",0.0,32.7,47.5,1000.8,190.9,2.0,3.2,223.9,0.14,20.1,25.7,"17:39:12",1
"22/07/24","17:50",0.0,32.6,47.2,1001.0,192.4,1.8,4.0,225.1,0.06,19.9,25.6,"17:44:00",1
"22/07/24","18:00",0.0,32.4,50.3,1000.8,197.4,2.1,3.6,244.1,0.01,20.8,25.5,"17:55:04",1
"22/07/24","18:10",0.0,32.2,51.6,1000.8,203.1,2.1,3.7,200.1,0.01,21.0,25.7,"18:09:44",1
"22/07/24","18:20",0.0,32.0,52.4,1000.8,205.3,1.8,3.6,236.5,0.01,21.1,25.3,"18:12:56",1
"22/07/24","18:30",0.0,31.7,52.7,1001.0,211.7,2.2,4.5,202.5,0.01,20.9,25.4,"18:28:00",1
"22/07/24","18:40",0.0,31.5,52.1,1001.0,209.6,2.5,4.2,210.4,0.01,20.5,25.4,"18:37:04",1
"22/07/24","18:50",0.0,31.2,54.3,1001.2,210.8,2.1,3.9,213.9,0.00,20.9,25.7,"18:42:00",1
"22/07/24","19:00",0.0,30.8,55.0,1001.0,231.1,1.5,2.9,210.0,0.00,20.8,25.5,"18:51:28",1
"22/07/24","19:10",0.0,30.3,57.7,1000.8,216.3,0.6,1.4,124.0,0.00,21.1,25.4,"19:09:36",1
"22/07/24","19:20",0.0,29.4,57.7,1000.0,248.9,0.5,1.2,202.2,0.00,20.2,25.5,"19:18:24",1
"22/07/24","19:30",0.0,29.2,59.3,1000.0,300.6,0.5,0.9,272.4,0.00,20.5,25.6,"19:20:16",1
"22/07/24","19:40",0.0,28.6,63.8,999.8,331.8,0.8,2.1,341.2,0.00,21.1,25.5,"19:33:20",1
"22/07/24","19:50",0.0,28.0,66.5,1000.3,340.4,1.1,1.9,345.3,0.00,21.2,25.6,"19:41:12",1
"22/07/24","20:00",0.0,27.5,68.4,1000.5,359.9,0.3,0.9,117.8,0.00,21.2,25.6,"19:56:48",1
"22/07/24","20:10",0.0,27.1,70.2,1000.3,352.0,1.0,1.3,352.7,0.00,21.2,25.5,"20:04:56",1
"22/07/24","20:20",0.0,26.7,72.0,1000.5,346.3,1.1,1.6,353.6,0.00,21.3,25.6,"20:15:52",1
"22/07/24","20:30",0.0,26.3,74.1,1000.8,318.7,1.0,1.7,343.5,0.00,21.4,25.5,"20:23:36",1
"22/07/24","20:40",0.0,26.1,74.9,1001.2,309.3,1.1,1.9,309.6,0.00,21.3,25.3,"20:39:44",1
"22/07/24","20:50",0.0,26.1,75.4,1001.0,328.7,1.2,2.5,341.1,0.00,21.4,25.4,"20:48:08",1
"22/07/24","21:00",0.0,25.9,75.6,1001.5,333.8,1.6,2.4,333.9,0.00,21.3,25.3,"20:50:16",1
"22/07/24","21:10",0.0,25.8,75.3,1001.7,339.8,1.5,2.5,325.6,0.00,21.1,25.4,"21:01:44",1
"22/07/24","21:20",0.0,25.7,75.7,1001.9,337.2,1.1,2.1,344.0,0.00,21.1,25.2,"21:10:32",1
"22/07/24","21:30",0.0,25.4,76.1,1001.9,324.7,1.1,1.7,328.1,0.00,20.9,25.3,"21:29:04",1
"22/07/24","21:40",0.0,25.5,76.0,1002.2,331.1,1.1,2.2,342.6,0.00,21.0,25.2,"21:39:04",1
"22/07/24","21:50",0.0,25.3,76.3,1002.2,340.8,1.0,1.6,347.3,0.00,20.9,25.5,"21:40:16",1
"22/07/24","22:00",0.0,25.2,76.3,1002.6,312.7,1.1,1.8,323.6,0.00,20.8,25.2,"21:55:20",1
"22/07/24","22:10",0.0,25.1,76.6,1002.2,340.0,1.2,1.9,343.4,0.00,20.7,25.2,"22:09:36",1
"22/07/24","22:20",0.0,24.9,77.5,1001.9,325.5,1.3,2.5,340.4,0.00,20.7,25.3,"22:16:16",1
"22/07/24","22:30",0.0,24.8,78.0,1002.4,322.5,1.1,1.9,318.4,0.00,20.7,25.2,"22:20:24",1
"22/07/24","22:40",0.0,24.7,78.7,1002.2,317.9,1.5,2.2,323.9,0.00,20.8,25.3,"22:33:36",1
"22/07/24","22:50",0.0,24.7,79.0,1002.6,309.2,1.1,1.8,335.8,0.00,20.9,25.2,"22:42:56",1
"22/07/24","23:00",0.0,24.7,79.0,1002.4,325.3,1.5,1.9,320.3,0.00,20.9,25.1,"22:50:40",1
"22/07/24","23:10",0.0,24.5,79.2,1002.9,307.0,0.7,1.8,333.7,0.00,20.7,25.1,"23:00:40",1
"22/07/24","23:20",0.0,24.5,79.5,1002.9,344.9,1.0,1.9,348.9,0.00,20.8,25.2,"23:14:24",1
"22/07/24","23:30",0.0,24.3,79.7,1002.6,312.5,0.8,1.3,346.5,0.00,20.6,25.2,"23:21:36",1
"22/07/24","23:40",0.0,24.2,80.1,1002.6,318.7,1.0,1.6,331.0,0.00,20.6,25.2,"23:32:48",1
"22/07/24","23:50",0.0,24.2,80.2,1002.9,313.3,1.5,2.4,322.6,0.00,20.6,25.2,"23:44:16",1
"22/07/24","24:00",0.0,24.2,80.5,1002.6,304.7,1.1,1.8,316.8,0.00,20.7,25.0,"23:56:24",1
